GW6152 Weather Reports


time (UTC)temp
F
wind
direction
speed
knots
gust
knots
rain 1hr
in
rain 24hr
in
rain mn
in
humidity
%
barometer
mb
20260906081943 74 89 2.6 4.3 0.00 0.00 0.00 93 1007.6
20260906081438 74 10 0.0 0.0 0.00 0.00 0.00 93 1007.9
20260906080934 75 66 6.1 6.1 0.00 0.00 0.00 94 1007.9
20260906080431 75 31 0.0 0.0 0.00 0.00 0.00 95 1007.9
20260906075930 75 46 2.6 4.3 0.00 0.00 0.00 95 1007.9
20260906075425 76 359 3.5 4.3 0.00 0.00 0.00 96 1008.3
20260906074921 76 9 2.6 4.3 0.00 0.00 0.00 96 1008.3
20260906074420 76 61 0.9 2.6 0.00 0.00 0.00 96 1008.3
20260906073920 76 79 2.6 6.1 0.00 0.00 0.00 96 1008.3
20260906073414 76 39 3.5 4.3 0.00 0.00 0.00 97 1008.6
20260906072911 76 104 0.9 2.6 0.00 0.00 0.00 97 1008.3
20260906072406 76 8 4.3 6.1 0.00 0.00 0.00 97 1008.6
20260906071902 76 31 0.0 0.0 0.00 0.00 0.00 98 1008.3
20260906071357 76 348 0.0 0.0 0.00 0.00 0.00 98 1007.9
20260906070853 76 101 0.0 0.0 0.00 0.00 0.00 98 1007.6
20260906070349 76 45 0.0 0.0 0.00 0.00 0.00 98 1007.9
20260906065844 76 8 0.0 0.0 0.00 0.00 0.00 98 1007.9
20260906065338 76 44 0.0 0.0 0.00 0.00 0.00 98 1007.9
20260906064834 76 96 0.0 0.0 0.00 0.00 0.00 98 1007.9
20260906064331 76 80 0.0 0.0 0.00 0.00 0.00 98 1007.9
20260906063830 76 124 0.0 0.0 0.00 0.00 0.00 98 1007.9
20260906063326 76 78 0.0 0.0 0.00 0.00 0.00 98 1007.9
20260906062821 76 128 0.0 0.0 0.00 0.00 0.00 98 1007.6
20260906062320 75 94 0.0 0.0 0.00 0.00 0.00 98 1007.6
20260906061816 75 145 0.0 0.0 0.00 0.00 0.00 98 1007.9
20260906061312 75 114 0.0 0.0 0.00 0.00 0.00 98 1007.6
20260906060806 75 142 0.0 0.0 0.00 0.00 0.00 98 1007.9
20260906060304 75 172 0.0 0.0 0.00 0.00 0.00 98 1007.9
20260906055800 75 1 0.0 0.0 0.00 0.00 0.00 98 1007.9
20260906055255 75 340 0.0 0.0 0.00 0.00 0.00 98 1007.9
20260906054750 75 52 0.0 0.0 0.00 0.00 0.00 98 1007.9
20260906054245 75 9 0.0 0.0 0.00 0.00 0.00 98 1007.9
20260906053742 75 2 0.0 0.0 0.00 0.00 0.00 98 1007.6
20260906053238 75 34 0.0 0.0 0.00 0.00 0.00 98 1007.6
20260906052732 75 86 0.0 0.0 0.00 0.00 0.00 98 1007.6
20260906052228 75 100 0.0 0.0 0.00 0.00 0.00 98 1007.6
20260906051725 75 299 0.0 0.0 0.00 0.00 0.00 98 1007.3
20260906051225 75 295 0.0 0.0 0.00 0.00 0.00 98 1007.3
20260906050720 75 291 0.0 0.0 0.00 0.00 0.00 98 1007.6
20260906050215 75 159 0.0 0.0 0.00 0.00 0.00 98 1007.6
20260906045713 75 196 0.0 0.0 0.00 0.00 0.00 98 1007.6
20260906045209 75 166 0.0 0.0 0.00 0.00 0.00 98 1007.6
20260906044705 75 190 0.0 0.0 0.00 0.00 0.00 98 1007.6
20260906044200 75 154 0.0 0.0 0.00 0.00 0.00 98 1007.6
20260906043656 75 156 0.0 0.0 0.00 0.00 0.00 97 1007.9
20260906043151 76 53 0.0 0.0 0.00 0.00 0.00 97 1007.9
20260906042651 76 118 0.0 0.0 0.00 0.00 0.00 97 1007.9
20260906042150 76 52 0.0 0.0 0.00 0.00 0.00 97 1007.9
20260906041646 76 109 0.0 0.0 0.00 0.00 0.00 97 1007.6
20260906041141 76 122 0.0 0.0 0.00 0.00 0.00 97 1007.9
20260906040637 76 20 0.0 0.0 0.00 0.00 0.00 97 1007.9
20260906040132 76 31 0.0 0.0 0.00 0.00 0.00 97 1007.9
20260906035627 77 115 0.0 0.0 0.00 0.00 0.00 97 1007.9
20260906035123 77 109 0.0 0.0 0.00 0.00 0.00 97 1007.9
20260906034623 77 109 0.0 0.0 0.00 0.00 0.00 97 1007.9
20260906034118 77 107 0.0 0.0 0.00 0.00 0.00 97 1008.3
20260906033614 77 19 0.0 0.0 0.00 0.00 0.00 96 1007.9
20260906033108 77 17 0.0 0.0 0.00 0.00 0.00 96 1007.9
20260906032606 77 15 0.0 0.0 0.00 0.00 0.00 96 1007.9
20260906032105 77 220 0.0 0.0 0.00 0.00 0.00 96 1007.6
20260906031601 78 79 0.0 0.0 0.00 0.00 0.00 96 1007.9
20260906031056 78 134 0.0 0.0 0.00 0.00 0.00 95 1007.9
20260906030555 78 137 0.0 0.0 0.00 0.00 0.00 95 1007.6
20260906030055 78 189 0.0 0.0 0.00 0.00 0.00 95 1007.6
20260906025555 78 205 0.0 0.0 0.00 0.00 0.00 95 1007.3
20260906025054 78 245 0.0 0.0 0.00 0.00 0.00 95 1007.6
20260906024549 79 23 0.0 0.0 0.00 0.00 0.00 94 1007.6
20260906024049 79 9 0.0 0.0 0.00 0.00 0.00 94 1007.3
20260906023545 79 80 0.0 0.0 0.00 0.00 0.00 93 1007.3
20260906023039 79 254 0.0 0.0 0.00 0.00 0.00 93 1007.3
20260906022535 79 10 0.0 0.0 0.00 0.00 0.00 92 1007.3
20260906022030 79 330 0.0 0.0 0.00 0.00 0.00 92 1007.3
20260906021526 79 218 0.0 0.0 0.00 0.00 0.00 91 1006.9
20260906021020 79 55 0.0 0.0 0.00 0.00 0.00 90 1007.3
20260906020519 79 143 0.0 0.0 0.00 0.00 0.00 89 1007.3
20260906020019 79 156 0.0 0.0 0.00 0.00 0.00 89 1007.3
20260906015518 79 131 0.0 0.0 0.00 0.00 0.00 90 1007.6
20260906015018 79 160 0.0 0.0 0.00 0.00 0.00 90 1007.3
20260906014513 79 121 0.0 0.0 0.00 0.00 0.00 90 1007.3
20260906014009 79 95 0.0 0.0 0.00 0.00 0.00 91 1007.3
20260906013504 79 122 0.0 0.0 0.00 0.00 0.00 91 1006.9
20260906012959 80 114 0.0 0.0 0.00 0.00 0.00 92 1006.9
20260906012454 80 118 0.0 0.0 0.00 0.00 0.00 92 1006.9
20260906011953 80 147 0.0 0.0 0.00 0.00 0.00 91 1006.9
20260906011449 81 153 0.0 0.0 0.00 0.00 0.00 91 1006.6
20260906010944 81 122 0.0 0.0 0.00 0.00 0.00 91 1006.2
20260906010440 81 89 0.0 0.0 0.00 0.00 0.00 90 1006.6
20260906005936 82 106 0.0 0.0 0.00 0.00 0.00 89 1006.6
20260906005435 82 145 0.0 0.0 0.00 0.00 0.00 89 1006.2
20260906004934 82 105 0.0 0.0 0.00 0.00 0.00 88 1006.2
20260906004428 83 126 0.0 0.0 0.00 0.00 0.00 86 1006.2
20260906003924 83 229 0.0 0.0 0.00 0.00 0.00 85 1006.2
20260906003419 84 171 0.0 0.0 0.00 0.00 0.00 83 1006.2
20260906002915 84 152 0.0 0.0 0.00 0.00 0.00 83 1006.6
20260906002414 84 175 0.0 0.0 0.00 0.00 0.00 84 1006.6
20260906001915 85 240 0.0 0.0 0.00 0.00 0.00 83 1006.6
20260906001410 85 160 0.0 0.0 0.00 0.00 0.00 82 1006.6
20260906000911 86 206 0.0 0.0 0.00 0.00 0.00 81 1006.2
20260906000406 86 279 0.0 0.0 0.00 0.00 0.00 80 1006.6
20260905235901 86 58 0.0 0.0 0.00 0.00 0.00 79 1006.2
20260905235355 87 209 0.0 2.6 0.00 0.00 0.00 78 1006.6
20260905234850 87 94 0.0 0.0 0.00 0.00 0.00 76 1006.6
20260905234345 87 56 0.0 0.0 0.00 0.00 0.00 77 1006.6
20260905233840 87 130 0.0 0.0 0.00 0.00 0.00 75 1006.6
20260905233335 87 244 0.0 0.0 0.00 0.00 0.00 73 1006.6
20260905232834 87 243 0.0 0.0 0.00 0.00 0.00 72 1006.6
20260905232331 87 89 0.0 0.0 0.00 0.00 0.00 72 1006.2
20260905231826 87 97 0.0 0.0 0.00 0.00 0.00 72 1006.6
20260905231321 88 176 0.0 0.0 0.00 0.00 0.00 72 1006.6
20260905230818 88 225 0.0 0.0 0.00 0.00 0.00 71 1006.2
20260905230315 88 9 0.0 0.0 0.00 0.00 0.00 74 1006.2
20260905225815 88 251 0.0 0.0 0.00 0.00 0.00 70 1006.2
20260905225310 88 183 0.0 0.0 0.00 0.00 0.00 67 1006.2
20260905224810 87 99 0.0 2.6 0.00 0.00 0.00 65 1006.2
20260905224305 87 39 0.0 0.0 0.00 0.00 0.00 66 1006.6
20260905223800 87 36 2.6 4.3 0.00 0.00 0.00 66 1006.2
20260905223258 87 133 0.0 0.0 0.00 0.00 0.00 67 1006.2
20260905222753 88 283 0.0 0.0 0.00 0.00 0.00 68 1006.2
20260905222252 88 147 0.9 2.6 0.00 0.00 0.00 69 1006.2
20260905221748 89 120 0.0 0.0 0.00 0.00 0.00 70 1006.2
20260905221244 91 80 8.7 10.4 0.00 0.00 0.00 68 1006.6
20260905220740 92 112 7.0 8.7 0.00 0.00 0.00 66 1006.6
20260905220236 94 88 6.1 8.7 0.00 0.00 0.00 66 1006.6
20260905215735 96 71 5.2 8.7 0.00 0.00 0.00 65 1006.6
20260905215231 98 82 6.1 8.7 0.00 0.00 0.00 63 1006.2
20260905214727 99 142 5.2 6.1 0.00 0.00 0.00 61 1006.6
20260905214222 100 108 0.0 2.6 0.00 0.00 0.00 56 1006.6
20260905213718 100 74 3.5 4.3 0.00 0.00 0.00 55 1005.9
20260905213214 101 178 0.0 0.0 0.00 0.00 0.00 56 1005.9
20260905212708 101 296 0.0 0.0 0.00 0.00 0.00 55 1005.9
20260905212208 101 184 0.0 0.0 0.00 0.00 0.00 55 1005.9
20260905211702 101 261 0.0 0.0 0.00 0.00 0.00 51 1005.9
20260905211158 101 307 0.0 0.0 0.00 0.00 0.00 54 1005.9
20260905210654 101 140 0.0 0.0 0.00 0.00 0.00 53 1005.9
20260905210154 101 164 0.0 0.0 0.00 0.00 0.00 53 1005.9
20260905205653 101 66 0.0 0.0 0.00 0.00 0.00 54 1005.9
20260905205153 101 20 0.0 0.0 0.00 0.00 0.00 53 1005.9
20260905204652 101 145 0.0 0.0 0.00 0.00 0.00 55 1006.2
20260905204148 101 165 0.0 0.0 0.00 0.00 0.00 55 1006.2
20260905203642 101 76 0.0 0.0 0.00 0.00 0.00 54 1006.2
20260905203138 101 340 0.0 0.0 0.00 0.00 0.00 52 1006.2
20260905202633 101 199 0.0 0.0 0.00 0.00 0.00 54 1006.2
20260905202128 101 246 0.0 0.0 0.00 0.00 0.00 57 1006.2
20260905201624 101 251 0.0 0.0 0.00 0.00 0.00 56 1006.2
20260905201123 101 347 0.0 0.0 0.00 0.00 0.00 53 1006.6
20260905200619 100 217 0.0 0.0 0.00 0.00 0.00 54 1006.6
20260905200115 100 358 0.0 0.0 0.00 0.00 0.00 54 1006.6
20260905195613 100 51 0.0 0.0 0.00 0.00 0.00 54 1006.6
20260905195109 100 52 0.9 2.6 0.00 0.00 0.00 54 1006.9
20260905194608 100 226 1.7 2.6 0.00 0.00 0.00 56 1006.9
20260905194108 100 129 0.0 0.0 0.00 0.00 0.00 54 1007.3
20260905193603 100 64 0.0 0.0 0.00 0.00 0.00 62 1007.3
20260905193058 100 251 0.0 2.6 0.00 0.00 0.00 60 1007.3
20260905192553 101 271 0.0 0.0 0.00 0.00 0.00 63 1006.9
20260905192049 100 25 0.0 0.0 0.00 0.00 0.00 58 1006.9
20260905191548 100 254 0.0 0.0 0.00 0.00 0.00 55 1007.3
20260905191042 100 29 5.2 6.1 0.00 0.00 0.00 54 1007.3
20260905190540 100 46 2.6 4.3 0.00 0.00 0.00 54 1007.3
20260905190039 99 318 0.0 0.0 0.00 0.00 0.00 56 1007.6
20260905185539 99 116 0.0 0.0 0.00 0.00 0.00 56 1007.6
20260905185038 99 210 0.0 0.0 0.00 0.00 0.00 58 1007.6
20260905184539 98 275 0.0 0.0 0.00 0.00 0.00 62 1007.6
20260905184038 98 139 0.0 0.0 0.00 0.00 0.00 58 1007.9
20260905183537 98 318 0.0 2.6 0.00 0.00 0.00 59 1007.9
20260905183033 98 64 0.0 0.0 0.00 0.00 0.00 56 1008.3
20260905182533 98 137 0.9 2.6 0.00 0.00 0.00 57 1007.9
20260905182032 98 146 0.0 0.0 0.00 0.00 0.00 57 1007.9
20260905181527 98 93 0.0 0.0 0.00 0.00 0.00 59 1008.3
20260905181026 98 4 0.0 2.6 0.00 0.00 0.00 63 1008.3
20260905180521 98 206 0.0 0.0 0.00 0.00 0.00 64 1008.3
20260905180017 98 257 0.0 0.0 0.00 0.00 0.00 64 1008.3
20260905175516 98 136 0.0 0.0 0.00 0.00 0.00 63 1008.3
20260905175012 97 137 0.0 0.0 0.00 0.00 0.00 60 1008.6
20260905174507 97 205 0.0 0.0 0.00 0.00 0.00 61 1008.3
20260905174002 97 104 0.0 0.0 0.00 0.00 0.00 62 1008.6
20260905173459 97 321 0.0 0.0 0.00 0.00 0.00 67 1008.6
20260905172954 97 341 1.7 2.6 0.00 0.00 0.00 65 1008.3
20260905172452 97 225 0.0 0.0 0.00 0.00 0.00 68 1008.6
20260905171948 97 107 0.0 0.0 0.00 0.00 0.00 62 1008.6
20260905171444 96 39 0.0 0.0 0.00 0.00 0.00 62 1008.6
20260905170940 96 156 0.0 0.0 0.00 0.00 0.00 64 1008.6
20260905170436 96 87 0.0 0.0 0.00 0.00 0.00 64 1008.6
20260905165936 96 96 0.0 0.0 0.00 0.00 0.00 63 1008.6
20260905165431 96 68 0.0 2.6 0.00 0.00 0.00 66 1009.0
20260905164926 95 350 0.0 2.6 0.00 0.00 0.00 75 1009.0
20260905164425 95 56 3.5 4.3 0.00 0.00 0.00 67 1009.0
20260905163920 95 204 0.0 0.0 0.00 0.00 0.00 71 1009.0
20260905163417 95 309 0.0 0.0 0.00 0.00 0.00 68 1009.0
20260905162913 95 208 0.0 0.0 0.00 0.00 0.00 69 1009.3
20260905162408 95 278 0.0 0.0 0.00 0.00 0.00 68 1009.3
20260905161903 94 74 0.9 2.6 0.00 0.00 0.00 67 1009.3
20260905161401 94 349 0.0 0.0 0.00 0.00 0.00 72 1009.3
20260905160900 94 110 0.0 0.0 0.00 0.00 0.00 69 1009.6
20260905160354 93 162 0.0 0.0 0.00 0.00 0.00 70 1009.6
20260905155849 93 271 0.0 0.0 0.00 0.00 0.00 79 1009.6
20260905155348 93 135 0.0 0.0 0.00 0.00 0.00 75 1009.6
20260905154847 93 279 0.0 2.6 0.00 0.00 0.00 74 1009.6
20260905154343 92 47 0.0 0.0 0.00 0.00 0.00 75 1009.6
20260905153838 92 15 0.0 0.0 0.00 0.00 0.00 75 1009.6
20260905153335 92 82 0.0 2.6 0.00 0.00 0.00 76 1010.0
20260905152835 92 65 0.0 0.0 0.00 0.00 0.00 79 1009.6
20260905152334 91 255 0.0 0.0 0.00 0.00 0.00 80 1010.0
20260905151829 91 99 0.0 0.0 0.00 0.00 0.00 79 1009.6
20260905151325 90 10 0.0 0.0 0.00 0.00 0.00 76 1009.6
20260905150824 90 97 0.0 0.0 0.00 0.00 0.00 78 1009.3
20260905150319 89 124 0.0 0.0 0.00 0.00 0.00 81 1009.6
20260905145817 89 214 0.0 0.0 0.00 0.00 0.00 80 1009.6
20260905145316 88 2 0.0 0.0 0.00 0.00 0.00 81 1009.6
20260905144815 88 341 0.0 0.0 0.00 0.00 0.00 82 1009.6
20260905144311 88 62 0.0 0.0 0.00 0.00 0.00 82 1010.0
20260905143810 87 10 0.0 2.6 0.00 0.00 0.00 83 1010.0
20260905143304 87 29 0.0 0.0 0.00 0.00 0.00 85 1010.0
20260905142803 86 37 0.0 0.0 0.00 0.00 0.00 85 1010.0
20260905142257 86 25 0.0 0.0 0.00 0.00 0.00 85 1010.0
20260905141754 85 75 0.0 0.0 0.00 0.00 0.00 84 1010.0
20260905141249 84 214 0.0 0.0 0.00 0.00 0.00 88 1010.0
20260905140745 82 101 0.0 0.0 0.00 0.00 0.00 89 1010.0
20260905140244 81 163 0.0 0.0 0.00 0.00 0.00 92 1010.3
20260905135743 80 132 0.0 0.0 0.00 0.00 0.00 95 1010.0
20260905135240 79 92 0.0 0.0 0.00 0.00 0.00 97 1010.0
20260905134739 79 169 0.0 0.0 0.00 0.00 0.00 98 1010.3
20260905134239 78 89 0.0 0.0 0.00 0.00 0.00 99 1010.3
20260905133733 77 119 0.0 0.0 0.00 0.00 0.00 99 1010.3
20260905133228 77 91 0.0 0.0 0.00 0.00 0.00 99 1010.3
20260905132727 77 118 0.0 0.0 0.00 0.00 0.00 99 1010.3
20260905132223 76 57 0.0 0.0 0.00 0.00 0.00 99 1010.3
20260905131718 76 88 0.0 0.0 0.00 0.00 0.00 99 1010.3
20260905131213 76 127 0.0 0.0 0.00 0.00 0.00 99 1010.3
20260905130708 75 60 0.0 0.0 0.00 0.00 0.00 99 1010.3
20260905130207 75 84 0.0 0.0 0.00 0.00 0.00 99 1010.3
20260905125702 75 68 0.0 0.0 0.00 0.00 0.00 99 1010.7
20260905125157 75 80 0.0 0.0 0.00 0.00 0.00 99 1010.7
20260905124654 74 15 0.0 0.0 0.00 0.00 0.00 99 1010.3
20260905124149 74 65 0.0 0.0 0.00 0.00 0.00 99 1010.7
20260905123644 74 40 0.0 0.0 0.00 0.00 0.00 99 1010.3
20260905123142 73 67 0.0 0.0 0.00 0.00 0.00 99 1010.3
20260905122641 73 16 0.0 0.0 0.00 0.00 0.00 99 1010.3
20260905122137 73 36 0.0 0.0 0.00 0.00 0.00 99 1010.3
20260905121636 73 52 0.0 0.0 0.00 0.00 0.00 99 1010.3
20260905121132 72 89 0.0 0.0 0.00 0.00 0.00 99 1010.0
20260905120631 72 93 0.0 0.0 0.00 0.00 0.00 99 1010.3
20260905120126 72 94 0.0 0.0 0.00 0.00 0.00 99 1010.3
20260905115625 72 105 0.0 0.0 0.00 0.00 0.00 99 1010.0
20260905115121 72 99 0.0 0.0 0.00 0.00 0.00 99 1010.0
20260905114620 72 78 0.0 0.0 0.00 0.00 0.00 99 1010.0
20260905114119 72 33 0.0 0.0 0.00 0.00 0.00 99 1009.6
20260905113614 72 61 0.0 0.0 0.00 0.00 0.00 99 1009.6
20260905113110 72 98 0.0 0.0 0.00 0.00 0.00 99 1009.6
20260905112604 72 126 0.0 0.0 0.00 0.00 0.00 99 1009.6
20260905112100 72 90 0.0 0.0 0.00 0.00 0.00 99 1009.3
20260905111554 72 34 0.0 0.0 0.00 0.00 0.00 99 1009.3
20260905111054 72 37 0.0 0.0 0.00 0.00 0.00 99 1009.3
20260905110553 72 45 0.0 0.0 0.00 0.00 0.00 99 1009.3
20260905110048 72 119 0.0 0.0 0.00 0.00 0.00 99 1009.3
20260905105548 72 161 0.0 0.0 0.00 0.00 0.00 99 1009.0
20260905105047 72 33 0.0 0.0 0.00 0.00 0.00 99 1009.0
20260905104544 72 95 0.0 0.0 0.00 0.00 0.00 99 1009.0
20260905104043 72 122 0.0 0.0 0.00 0.00 0.00 99 1009.0
20260905103538 72 57 0.0 0.0 0.00 0.00 0.00 99 1009.0
20260905103035 72 56 0.0 0.0 0.00 0.00 0.00 99 1009.0
20260905102530 72 44 0.0 0.0 0.00 0.00 0.00 99 1009.0
20260905102026 72 68 0.0 0.0 0.00 0.00 0.00 99 1008.6
20260905101525 72 120 0.0 0.0 0.00 0.00 0.00 99 1008.6
20260905101023 72 115 0.0 0.0 0.00 0.00 0.00 99 1008.6
20260905100520 72 76 0.0 0.0 0.00 0.00 0.00 99 1009.0
20260905100019 72 84 0.0 0.0 0.00 0.00 0.00 99 1009.0
20260905095514 72 126 0.0 0.0 0.00 0.00 0.00 99 1009.0
20260905095009 72 120 0.0 0.0 0.00 0.00 0.00 99 1009.0
20260905094504 72 125 0.0 0.0 0.00 0.00 0.00 99 1009.0
20260905094003 73 151 0.0 0.0 0.00 0.00 0.00 99 1009.0
20260905093458 73 70 0.0 0.0 0.00 0.00 0.00 99 1008.6
20260905092954 73 100 0.0 0.0 0.00 0.00 0.00 99 1008.6
20260905092449 73 110 0.0 0.0 0.00 0.00 0.00 99 1009.0
20260905091945 73 89 0.0 0.0 0.00 0.00 0.00 99 1008.6
20260905091444 73 71 0.0 0.0 0.00 0.00 0.00 99 1009.0
20260905090944 73 70 0.0 0.0 0.00 0.00 0.00 99 1008.6
20260905090439 73 120 0.0 0.0 0.00 0.00 0.00 99 1008.6
20260905085938 73 148 0.0 0.0 0.00 0.00 0.00 99 1008.6
20260905085438 73 195 0.0 0.0 0.00 0.00 0.00 99 1008.6
20260905084934 73 73 0.0 0.0 0.00 0.00 0.00 99 1008.6
20260905084433 73 89 0.0 0.0 0.00 0.00 0.00 99 1008.6
20260905083928 73 129 0.0 0.0 0.00 0.00 0.00 99 1008.6
20260905083424 73 98 0.0 0.0 0.00 0.00 0.00 99 1008.6
20260905082919 73 77 0.0 0.0 0.00 0.00 0.00 99 1008.6